Weather reports worldwide

Advertisment
Boulogne, France (7002): temperature & dewpoint: 16.08.2019 20:00:00 - 22.08.2019 20:00:00 (CEST)Boulogne, France (7002): wind speed & gusts: 16.08.2019 20:00:00 - 22.08.2019 20:00:00 (CEST)Boulogne, France (7002): wind direction: 16.08.2019 20:00:00 - 22.08.2019 20:00:00 (CEST)Boulogne, France (7002): reduced air pressure: 16.08.2019 20:00:00 - 22.08.2019 20:00:00 (CEST)Boulogne, France (7002): visibility: 16.08.2019 20:00:00 - 22.08.2019 20:00:00 (CEST)Boulogne, France (7002): precipitation: 16.08.2019 20:00:00 - 22.08.2019 20:00:00 (CEST)
Date & Time tt [°C] td [°C] ff [km/h] ff [kn] fx [km/h] fx [kn] dd ppp [hPa] vv [km] rr [mm]
22.08.2019 20:00:00 17,6 12,5 16 9 26 14 SW 1025,6 - 0,0
22.08.2019 19:00:00 18,4 12,4 16 9 30 16 WSW 1025,8 - 0,0
22.08.2019 18:00:00 18,6 11,2 22 12 35 19 WSW 1026,0 - 0,0
22.08.2019 17:00:00 18,4 13,5 22 12 34 18 WSW 1026,1 20 0,0
22.08.2019 16:00:00 18,5 14,0 24 13 35 19 WSW 1026,2 - 0,0
22.08.2019 15:00:00 18,6 13,7 20 11 30 16 WSW 1026,4 - 0,0
22.08.2019 14:00:00 18,4 12,8 20 11 31 17 SW 1026,7 17 0,0
22.08.2019 13:00:00 17,9 11,9 18 10 28 15 SW 1026,7 - 0,0
22.08.2019 12:00:00 17,6 11,8 16 9 27 15 WSW 1026,8 - 0,0
22.08.2019 11:00:00 17,2 12,3 13 7 22 12 SW 1026,5 15 0,0
22.08.2019 10:00:00 16,5 12,1 8 4 13 7 WSW 1026,4 - 0,0
22.08.2019 09:00:00 14,6 12,1 5 3 10 5 WSW 1026,3 - 0,0
22.08.2019 08:00:00 13,4 12,3 5 3 16 9 SE 1026,1 15 0,0
22.08.2019 07:00:00 13,1 11,8 5 3 11 6 SW 1025,7 - 0,0
22.08.2019 06:00:00 13,3 12,0 6 4 14 7 SSW 1025,5 - 0,0
22.08.2019 05:00:00 13,3 11,9 9 5 14 7 SSE 1025,4 - 0,0
22.08.2019 04:00:00 13,7 12,3 8 4 11 6 SSE 1025,5 - 0,0
22.08.2019 03:00:00 13,9 11,9 6 3 9 5 SSE 1025,9 - 0,0
22.08.2019 02:00:00 14,1 11,6 5 3 8 4 SSE 1026,3 - 0,0
22.08.2019 01:00:00 14,5 11,6 6 3 9 5 SE 1026,3 - 0,0
22.08.2019 00:00:00 14,8 12,1 7 4 10 5 SE 1026,4 - 0,0
21.08.2019 23:00:00 16,0 12,0 7 4 11 6 ESE 1026,5 - 0,0
21.08.2019 22:00:00 16,2 12,7 7 4 12 6 E 1026,6 - 0,0
21.08.2019 21:00:00 16,4 12,9 4 2 10 5 N 1026,3 - 0,0
21.08.2019 20:00:00 17,7 13,2 5 3 15 8 W 1026,2 - 0,0
21.08.2019 19:00:00 18,3 13,4 9 5 16 9 W 1026,5 - 0,0
21.08.2019 18:00:00 18,5 14,0 9 5 19 11 WNW 1026,9 - 0,0
21.08.2019 17:00:00 18,6 13,9 12 6 22 12 W 1026,9 15 0,0
21.08.2019 16:00:00 18,4 12,8 12 6 22 12 W 1027,2 - 0,0
21.08.2019 15:00:00 18,3 13,2 14 8 24 13 W 1027,7 - 0,0
21.08.2019 14:00:00 18,0 12,2 13 7 27 15 SW 1027,9 10 0,0
21.08.2019 13:00:00 18,0 13,3 15 8 25 13 WSW 1028,2 - 0,0
21.08.2019 12:00:00 18,0 13,7 11 6 19 10 W 1028,5 - 0,0
21.08.2019 11:00:00 17,5 14,2 8 5 11 6 W 1028,6 8 0,0
21.08.2019 10:00:00 18,2 13,7 3 2 8 5 S 1028,6 - 0,0
21.08.2019 09:00:00 16,0 13,7 5 3 10 5 SSE 1028,5 - 0,0
21.08.2019 08:00:00 14,6 13,5 6 3 9 5 SSE 1028,3 7 0,0
21.08.2019 07:00:00 13,5 12,7 5 3 11 6 SE 1028,0 - 0,0
21.08.2019 06:00:00 13,4 12,5 8 4 11 6 SE 1027,6 - 0,0
21.08.2019 05:00:00 14,0 12,9 8 4 12 7 ESE 1027,4 - 0,0
21.08.2019 04:00:00 14,3 12,8 9 5 12 6 ESE 1027,5 - 0,0
21.08.2019 03:00:00 15,3 13,1 3 2 19 11 SSW 1027,5 - 0,0
21.08.2019 02:00:00 16,1 14,1 11 6 32 17 W 1027,5 - 0,0
21.08.2019 01:00:00 16,3 14,1 18 10 32 18 W 1027,3 - 0,0
21.08.2019 00:00:00 16,2 13,5 18 10 34 18 W 1027,3 - 0,0
20.08.2019 23:00:00 16,1 12,8 17 9 31 17 WSW 1027,1 17 0,0
20.08.2019 22:00:00 16,1 12,1 19 11 35 19 WSW 1026,8 - 0,0
20.08.2019 21:00:00 16,1 12,3 21 11 36 19 WSW 1026,4 - 0,0
20.08.2019 20:00:00 16,8 11,7 23 12 40 22 W 1025,8 15 0,0
20.08.2019 19:00:00 17,5 11,5 22 12 42 23 WSW 1025,5 - 0,0
20.08.2019 18:00:00 17,9 11,7 26 14 42 23 WSW 1025,2 - 0,0
20.08.2019 17:00:00 17,8 10,7 27 15 43 23 WSW 1024,9 22 0,0
20.08.2019 16:00:00 17,7 11,9 26 14 40 22 WSW 1024,7 - 0,0
20.08.2019 15:00:00 18,2 11,0 22 12 37 20 WSW 1024,4 - 0,0
20.08.2019 14:00:00 18,0 11,8 19 10 36 20 WSW 1024,1 19 0,0
20.08.2019 13:00:00 17,0 12,3 22 12 35 19 W 1023,6 - 0,0
20.08.2019 12:00:00 17,0 11,5 22 12 34 18 W 1023,4 - 0,0
20.08.2019 11:00:00 16,4 11,8 21 12 32 17 W 1023,2 17 0,0
20.08.2019 10:00:00 16,0 12,0 19 10 29 16 W 1022,8 - 0,0
20.08.2019 09:00:00 15,3 11,3 15 8 30 16 W 1022,3 - 0,0
20.08.2019 08:00:00 15,3 11,5 19 10 29 16 W 1021,8 - 0,0
20.08.2019 07:00:00 15,5 11,7 16 9 36 19 W 1020,9 - 0,6
20.08.2019 06:00:00 15,1 12,2 26 14 43 23 W 1020,3 - 0,0
20.08.2019 05:00:00 16,0 13,3 24 13 38 21 WSW 1020,2 - 0,0
20.08.2019 04:00:00 16,3 13,6 26 14 38 20 WSW 1020,2 - 0,0
20.08.2019 03:00:00 16,3 13,4 23 13 43 23 WSW 1020,3 - 0,0
20.08.2019 02:00:00 16,3 13,4 24 13 44 24 WSW 1020,3 15 0,0
20.08.2019 01:00:00 16,1 12,8 24 13 46 25 W 1020,2 - 0,0
20.08.2019 00:00:00 16,2 12,7 27 14 45 24 WSW 1019,9 - 0,0
19.08.2019 23:00:00 16,2 12,2 26 14 48 26 WSW 1019,7 - 0,0
19.08.2019 22:00:00 16,5 12,5 27 15 53 28 WSW 1019,4 - 0,0
19.08.2019 21:00:00 16,6 12,1 32 17 54 29 WSW 1018,7 - 0,0
19.08.2019 20:00:00 17,0 12,3 32 17 57 31 WSW 1018,3 15 0,0
19.08.2019 19:00:00 17,6 11,8 37 20 60 32 WSW 1018,0 - 0,0
19.08.2019 18:00:00 17,9 11,9 39 21 57 31 WSW 1017,8 - 0,0
19.08.2019 17:00:00 18,1 12,1 38 20 60 32 WSW 1017,7 - 0,0
19.08.2019 16:00:00 18,0 12,4 41 22 61 33 WSW 1017,5 - 0,0
19.08.2019 15:00:00 17,8 12,7 42 23 62 34 WSW 1017,1 - 0,0
19.08.2019 14:00:00 17,9 12,8 42 23 57 31 WSW 1016,7 13 0,0
19.08.2019 13:00:00 17,7 11,3 42 23 58 31 WSW 1016,2 - 0,0
19.08.2019 12:00:00 17,5 11,7 40 22 58 31 WSW 1015,8 - 0,0
19.08.2019 11:00:00 17,1 12,0 35 19 53 28 WSW 1015,2 9 0,0
19.08.2019 10:00:00 16,6 11,9 31 17 53 28 WSW 1014,6 - 0,0
19.08.2019 09:00:00 16,4 12,2 32 17 55 30 WSW 1014,3 - 0,0
19.08.2019 08:00:00 16,2 11,6 35 19 55 30 WSW 1014,0 - 0,0
19.08.2019 07:00:00 16,1 11,7 35 19 54 29 WSW 1013,5 - 0,0
19.08.2019 06:00:00 16,1 11,7 35 19 56 30 WSW 1012,9 - 0,0
19.08.2019 05:00:00 16,1 12,1 36 20 56 30 WSW 1012,7 12 0,0
19.08.2019 04:00:00 16,3 12,1 33 18 56 31 WSW 1012,7 - 0,0
19.08.2019 03:00:00 16,4 12,7 32 17 55 30 WSW 1012,4 - 0,0
19.08.2019 02:00:00 16,3 12,6 32 17 60 32 WSW 1012,1 12 0,0
19.08.2019 01:00:00 16,3 12,5 36 19 58 31 WSW 1011,7 - 0,0
19.08.2019 00:00:00 16,4 12,4 39 21 69 37 WSW 1011,2 - 0,0
18.08.2019 23:00:00 16,4 12,4 42 23 62 34 WSW 1010,6 12 0,0
18.08.2019 22:00:00 16,4 12,6 36 19 65 35 WSW 1010,3 - 0,0
18.08.2019 21:00:00 16,5 12,1 42 23 61 33 WSW 1009,9 - 0,0
18.08.2019 20:00:00 16,8 12,3 44 24 66 36 WSW 1009,7 - 0,0
18.08.2019 19:00:00 17,2 12,5 43 23 70 38 WSW 1009,2 - 0,0
18.08.2019 18:00:00 17,8 12,0 39 21 64 35 WSW 1009,1 - 0,0
18.08.2019 17:00:00 18,0 12,7 41 22 61 33 WSW 1008,9 12 0,0
18.08.2019 16:00:00 17,8 13,5 43 23 64 35 WSW 1008,3 - 0,0
18.08.2019 15:00:00 17,2 13,1 39 21 60 32 WSW 1007,6 - 0,0
18.08.2019 14:00:00 17,6 14,9 31 17 49 26 SW 1006,4 12 0,0
18.08.2019 13:00:00 16,5 14,3 21 11 38 20 SW 1006,4 - 0,0
18.08.2019 12:00:00 15,4 13,8 17 9 26 14 SW 1006,0 - 0,0
18.08.2019 11:00:00 14,8 14,3 6 3 18 10 SSE 1004,9 12 0,0
18.08.2019 10:00:00 14,2 13,9 6 4 13 7 NW 1004,6 - 0,0
18.08.2019 09:00:00 13,8 13,5 9 5 23 12 N 1004,2 - 0,6
18.08.2019 08:00:00 14,0 13,7 10 5 22 12 NNW 1003,9 1,2 2,4
18.08.2019 07:00:00 14,5 14,0 7 4 13 7 SE 1004,0 - 1,3
18.08.2019 06:00:00 14,5 14,0 9 5 23 12 SSE 1004,7 - 2,4
18.08.2019 05:00:00 15,1 14,3 12 7 31 17 SSW 1005,5 8 3,0
18.08.2019 04:00:00 16,6 14,6 23 13 37 20 SW 1005,7 - 0,0
18.08.2019 03:00:00 16,8 14,4 28 15 40 21 SW 1006,3 - 0,0
18.08.2019 02:00:00 17,2 14,5 27 15 41 22 WSW 1006,7 12 0,0
18.08.2019 01:00:00 17,2 14,8 29 15 43 23 WSW 1007,0 - 0,0
18.08.2019 00:00:00 17,0 15,0 29 16 45 24 WSW 1007,2 - 0,0
17.08.2019 23:00:00 17,2 14,8 31 17 48 26 SW 1007,5 12 0,0
17.08.2019 22:00:00 17,1 14,4 30 16 48 26 WSW 1007,6 - 0,0
17.08.2019 21:00:00 17,1 14,6 34 18 48 26 SW 1007,7 - 0,0
17.08.2019 20:00:00 17,1 14,6 31 17 47 26 SW 1007,4 - 0,0
17.08.2019 19:00:00 17,1 14,7 27 14 47 26 SW 1007,1 - 0,0
17.08.2019 18:00:00 17,1 14,6 32 17 49 26 SW 1007,5 - 0,0
17.08.2019 17:00:00 17,2 14,5 32 17 45 24 WSW 1007,8 9 0,0
17.08.2019 16:00:00 17,4 14,5 29 16 47 25 WSW 1007,8 - 0,0
17.08.2019 15:00:00 17,5 14,8 30 16 50 27 WSW 1007,7 - 0,0
17.08.2019 14:00:00 17,4 14,3 31 17 44 24 WSW 1007,4 9 0,0
17.08.2019 13:00:00 17,4 14,5 26 14 40 21 SW 1007,1 - 0,0
17.08.2019 12:00:00 17,2 15,0 28 15 40 21 SW 1007,2 - 0,2
17.08.2019 11:00:00 17,8 17,6 25 13 42 23 SW 1006,4 12 0,0
17.08.2019 10:00:00 18,0 17,8 35 19 54 29 WSW 1006,6 - 0,2
17.08.2019 09:00:00 17,9 17,7 37 20 53 28 SW 1006,2 - 0,0
17.08.2019 08:00:00 17,7 17,5 37 20 57 31 SW 1006,1 - 0,4
17.08.2019 07:00:00 17,4 17,2 27 15 56 30 SSW 1005,9 - 2,6
17.08.2019 06:00:00 17,3 17,0 31 17 64 35 SW 1005,8 - 0,4
17.08.2019 05:00:00 17,0 16,7 32 17 66 36 SW 1006,2 8 0,2
17.08.2019 04:00:00 17,0 16,2 37 20 66 36 SW 1006,2 - 0,0
17.08.2019 03:00:00 16,7 15,9 33 18 62 34 SW 1006,7 - 0,6
17.08.2019 02:00:00 16,8 15,8 36 19 64 35 SW 1007,2 8 0,6
17.08.2019 01:00:00 17,2 14,8 24 13 48 26 S 1007,6 - 0,0
17.08.2019 00:00:00 17,1 14,9 26 14 48 26 S 1008,2 - 0,0
16.08.2019 23:00:00 16,5 15,4 22 12 42 23 S 1008,9 - 0,2
16.08.2019 22:00:00 16,8 15,3 22 12 38 21 S 1009,8 - 1,4
16.08.2019 21:00:00 16,9 15,1 18 10 30 16 S 1010,3 - 0,6
16.08.2019 20:00:00 17,5 14,0 17 9 31 17 S 1010,8 8 0,0

tt = temperature
td = dewpoint
ff = wind speed
fx = gusts
dd = wind direction
ppp = reduced air pressure
vv = visibility
rr = precipitation

Next stations